Location: Ojai
(34.4480°N, 119.2420°W)
Time: 02:29:08
(UTC-07:00)

OTV 5 (USA 277) - Visible Passes

Search period start: 25 March 2019 00:00
Search period end: 04 April 2019 00:00
Orbit: 315 x 320 km, 54.5° (Epoch: 14 March)

Date Brightness Start Highest point End Pass type
(mag) Time Alt. Az. Time Alt. Az. Time Alt. Az.
27 Mar ? 06:18:24 10° SE 06:19:12 11° SE 06:20:02 10° ESE visible
30 Mar ? 05:27:20 13° SSE 05:28:54 19° SE 05:30:57 10° ENE visible
31 Mar ? 05:42:07 26° SSW 05:43:28 75° SE 05:46:10 10° NE visible
01 Apr ? 05:56:45 18° W 05:58:12 29° NW 06:00:37 10° NNE visible
02 Apr ? 04:40:21 17° ENE 04:40:21 17° ENE 04:41:09 10° ENE visible
02 Apr ? 06:12:01 10° WNW 06:13:04 12° NW 06:14:09 10° NNW visible
03 Apr ? 04:54:44 22° NNE 04:54:44 22° NNE 04:55:55 10° NNE visible
